Location: Liscomb Game Sanctuary
(45.1633°N, 62.5575°W)
Time: 12:33:30
(UTC-03:00)

Cosmos 1633 - Pass Details

Date: 22 February 2018
Orbit: 469 x 485 km, 82.5° (Epoch: 22 June)

Event Time Altitude Azimuth Distance (km) Brightness Sun altitude
Rises 18:16:02 0° 162° (SSE) 2,496 6.1 -5.7°
Reaches altitude 10° 18:18:18 10° 150° (SSE) 1,626 5.0 -6.1°
Maximum altitude 18:21:21 27° 91° (E) 932 3.4 -6.6°
Drops below altitude 10° 18:24:25 10° 32° (NNE) 1,644 4.9 -7.2°
Sets 18:26:43 0° 20° (NNE) 2,530 5.9 -7.6°
